Regional Weather Roundup
Issued by NWS

Home | Current Version | Previous Version | Text Only | Print | Product List | Glossary Off
Versions: 1 2 3 4 5 6 7 8 9 10 11 12 13 14 15 16 17 18 19 20 21 22 23 24 25 26 27 28 29 30 31 32 33 34 35 36 37 38 39 40 41 42 43 44 45 46 47 48 49 50

000
ASUS43 KLOT 131508
RWRIL

ILLINOIS REGIONAL WEATHER ROUNDUP
NATIONAL WEATHER SERVICE CHICAGO/ROMEOVILLE IL
900 AM CST SAT FEB 13 2016

NOTE: "FAIR" INDICATES FEW OR NO CLOUDS BELOW 12,000 FEET WITH NO
SIGNIFICANT WEATHER AND/OR OBSTRUCTIONS TO VISIBILITY.

* THESE STATIONS ARE NOT UNDER NWS QUALITY CONTROL. THEY ALSO MAY NOT
  REPORT WEATHER SUCH AS PRECIPITATION OR FOG.

ILZ001-002-007-009-015-016-024-131600-
NORTHWEST ILLINOIS

CITY           SKY/WX    TMP DP  RH WIND       PRES   REMARKS
MOLINE         SUNNY      8  -8  48 N6        30.66R WCI  -2
STERLING*      SUNNY      9  -9  43 NW9       30.61R WCI  -5
SAVANNA*       MOSUNNY    6 -11  47 NW9       30.66R WCI  -8
$$

ILZ003-004-008-010-011-017-018-131600-
NORTH CENTRAL ILLINOIS

CITY           SKY/WX    TMP DP  RH WIND       PRES   REMARKS
ROCKFORD       MOSUNNY    5 -10  50 NW12      30.62R WCI -11
FREEPORT*      MOSUNNY    3 -11  53 NW8       30.63R WCI -10
ROCHELLE*      MOSUNNY    5  -8  53 NW7       30.61S WCI  -7
DE KALB*       MOSUNNY    5  -9  52 NW6       30.59R WCI  -6
$$

ILZ005-006-012>014-019>023-131600-
NORTHEAST ILLINOIS

CITY           SKY/WX    TMP DP  RH WIND       PRES   REMARKS
CHICAGO-OHARE  MOSUNNY    6  -9  50 W10       30.58R WCI  -9
CHICAGO-MIDWAY MOSUNNY    8 -10  43 NW12      30.59R WCI  -7
AURORA         SUNNY      7  -7  52 NW12      30.60R WCI  -8
LANSING*       SUNNY      8  -9  45 NW8       30.59R WCI  -4
JOLIET*        MOSUNNY    8  -7  49 NW6       30.61S WCI  -2
WAUKEGAN       SUNNY      4  -9  55 NW7       30.56S WCI  -8
DUPAGE AIRPORT SUNNY      5  -9  52 NW12      30.57S WCI -11
KANKAKEE*      MOSUNNY    8  -8  46 NW9       30.61S WCI  -5
WHEELING       SUNNY      5  -9  52 NW12      30.60R WCI -11
MORRIS*        MOSUNNY    8  -7  50 NW7       30.58R WCI  -4
ROMEOVILLE*    MOSUNNY    7  -9  46 NW10      30.59S WCI  -7
NORTHERLY ISL    N/A      8  -7  50 W6          N/A  WCI  -2
$$

LMZ740>746-131600-
SOUTHERN LAKE MICHIGAN

STATION/POSITION SKY/WX   TEMP    WIND        PRES    VSBY  WAVE
                          AIR SEA DIR/SP/G                  HT/PER
                          (F)     (DEG/KT/KT) (MB)    (MI)  (FT/S)
HARRISON CRIB               6     320/ 16/ 20   N/A
BURNHAM HARBOR              9     270/  6/ 12   N/A
CALUMET HARBOR              5     280/  7/ 12 1034.4R
BURNS HARBOR                9     310/ 14/ 19 1034.5R
MICHIGAN CITY              11     280/ 18/ 21   N/A
$$

ILZ025>027-034>036-040-047-049-050-058-095>099-131600-
WEST-CENTRAL ILLINOIS

CITY           SKY/WX    TMP DP  RH WIND       PRES   REMARKS
QUINCY         MOSUNNY    8  -3  61 N5        30.67R WCI   0
GALESBURG*     SUNNY      8  -2  64 NW6       30.65R WCI  -2
MACOMB*        SUNNY      9  -3  60 N6        30.68R WCI  -1
JACKSONVILLE*  SUNNY     12  -3  52 CALM      30.67R
PITTSFIELD*    CLOUDY    10  -2  57 NE5       30.68R WCI   2
$$

ILZ028>032-037-038-041>044-048-051>054-059>061-131600-
CENTRAL ILLINOIS

CITY           SKY/WX    TMP DP  RH WIND       PRES   REMARKS
PONTIAC        MOSUNNY    9  -7  49 NW10      30.64R WCI  -5
BLOOMINGTON    SUNNY      8  -8  48 N8        30.63R WCI  -4
DECATUR        CLOUDY    10  -5  50 N9        30.63S WCI  -3
PEORIA         MOSUNNY    9  -8  46 VRB6      30.66R WCI  -1
LACON*         SUNNY      8 -10  43 NW7       30.65S WCI  -3
LINCOLN*       MOSUNNY   10  -2  56 N6        30.65S WCI   1
SPRINGFIELD    MOSUNNY   11  -4  51 N8        30.66R WCI  -1
TAYLORVILLE    PTSUNNY   10  -2  56 N7        30.65S WCI   0
$$

ILZ033-039-045-046-055>057-062-063-131600-
EAST-CENTRAL ILLINOIS

CITY           SKY/WX    TMP DP  RH WIND       PRES   REMARKS
CHAMPAIGN      CLOUDY     9  -5  53 N10       30.62R WCI  -5
RANTOUL*       CLOUDY    10  -4  53 NW10      30.62R WCI  -4
MATTOON        PTSUNNY    9  -4  55 N10       30.62R WCI  -5
PARIS*         CLOUDY    10  -3  56 NW8       30.63R WCI  -2
$$

ILZ079-100>102-131600-
SOUTHWEST ILLINOIS

CITY           SKY/WX    TMP DP  RH WIND       PRES   REMARKS
ALTON          PTSUNNY   12   0  57 NW9       30.68R WCI   0
BELLEVILLE     MOSUNNY   14   0  54 N2        30.67R
CAHOKIA*       CLOUDY    15   0  51 N7        30.69R WCI   5
SPARTA*        CLOUDY    14   2  60 N6        30.67S WCI   5
$$

ILZ064>066-069>071-074>076-080>082-084>086-088>090-092>094-131600-
SOUTH-CENTRAL ILLINOIS

CITY           SKY/WX    TMP DP  RH WIND       PRES   REMARKS
CARBONDALE     MOSUNNY   16   2  54 N8        30.67R WCI   5
CAIRO*         CLOUDY    19  10  68 N12G17    30.65S WCI   6
EFFINGHAM*     MOSUNNY   13   0  57 NW8       30.67R WCI   1
MARION         PTSUNNY   18   5  57 N9        30.66S WCI   6
MT. VERNON     MOSUNNY   14   1  57 NE3       30.65R
CENTRALIA*     MOSUNNY   15   3  60 N8        30.65R WCI   4
SALEM*         SUNNY     14   2  57 N7        30.65S WCI   4
METROPOLIS*    CLOUDY    18   6  59 N9        30.65S WCI   7
$$

ILZ067-068-072-073-078-083-087-091-131600-
SOUTHEAST ILLINOIS

CITY           SKY/WX    TMP DP  RH WIND       PRES   REMARKS
LAWRENCEVILLE  SUNNY     14  -2  49 N9        30.65R WCI   2
FLORA*         SUNNY     15   0  50 N8        30.65F WCI   4
FAIRFIELD*     MOSUNNY   15   4  62 NW6       30.65R WCI   7
HARRISBURG*    SUNNY     16   5  62 N9        30.66S WCI   4
ROBINSON*      MOSUNNY   12  -4  48 N10       30.65S WCI  -2
CARMI*         MOSUNNY   15   5  65 N9        30.65S WCI   3
$$

ABBREVIATIONS USED IN REMARKS
   TC - TEMPERATURE IN CELSIUS
  WCI - WIND CHILL INDEX
   HX - HEAT INDEX
  VSB - VISIBILITY
$$




USA.gov is the U.S. government's official web portal to all federal, state and local government web resources and services.